Location: Gebenbach
(49.5378°N, 11.8735°E)
Time: 03:41:03
(UTC+00:00)

YAOGAN 1 - Pass Details

Date: 29 October 2020
Orbit: 618 x 620 km, 97.9° (Epoch: 24 November)

Event Time Altitude Azimuth Distance (km) Brightness Sun altitude
Rises 17:15:13 0° 149° (SSE) 2,887 5.7 -13.5°
Reaches altitude 10° 17:17:27 10° 144° (SE) 1,986 4.9 -13.9°
Maximum altitude 17:21:36 48° 70° (ENE) 813 2.7 -14.5°
Drops below altitude 10° 17:25:47 10° 356° (N) 2,000 5.2 -15.2°
Sets 17:28:02 0° 351° (N) 2,910 6.1 -15.6°
